Tracking 19817 objects as of 20-Aug-2019
HD Live streaming from Space Station
objects crossing your sky now

FENGYUN 1C DEB

Track FENGYUN 1C DEB now!
10-day predictions


NORAD ID: 30542
Int'l Code: 1999-025AKG
Perigee: 861.2 km
Apogee: 900.7 km
Inclination: 99.1 °
Period: 102.4 minutes
Semi major axis: 7251 km
RCS: 0.0234 m2 (small)
Launch date: May 10, 1999
Source: People's Republic of China (PRC)
Launch site: Taiyaun Space Center, China (TSC)

Note: This is SATELLITE DEBRIS
aabbcc
Your satellite tracking list
Your tracking list is empty




NASA's NSSDC Master Catalog

Two Line Element Set (TLE):
1 30542U 99025AKG 19230.93364793 -.00000159 +00000-0 -69203-4 0  9999
2 30542 099.0687 259.9489 0027261 311.6540 167.4478 14.05797504644844
Source of the keplerian elements: AFSPC